TimeHST,TemperatureF,Dew PointF,Humidity,Sea Level PressureIn,VisibilityMPH,Wind Direction,Wind SpeedMPH,Gust SpeedMPH,PrecipitationIn,Events,Conditions,WindDirDegrees,DateUTC
12:53 AM,69.1,66.9,93,29.96,10.0,West,5.8,-,N/A,,Overcast,280,2013-11-20 10:53:00
1:53 AM,68.0,66.9,96,29.95,10.0,West,3.5,-,N/A,,Partly Cloudy,270,2013-11-20 11:53:00
2:53 AM,70.0,68.0,93,29.94,10.0,West,3.5,-,N/A,,Scattered Clouds,270,2013-11-20 12:53:00
3:53 AM,69.1,68.0,96,29.93,10.0,West,6.9,-,N/A,,Partly Cloudy,270,2013-11-20 13:53:00
4:53 AM,70.0,69.1,97,29.93,10.0,WSW,4.6,-,N/A,,Scattered Clouds,240,2013-11-20 14:53:00
5:53 AM,70.0,69.1,97,29.94,10.0,West,6.9,-,N/A,,Partly Cloudy,280,2013-11-20 15:53:00
6:53 AM,69.1,68.0,96,29.95,9.0,WSW,3.5,-,N/A,,Scattered Clouds,250,2013-11-20 16:53:00
7:53 AM,71.1,70.0,96,29.96,9.0,West,4.6,-,N/A,,Clear,280,2013-11-20 17:53:00
8:53 AM,73.0,70.0,90,29.98,9.0,WSW,3.5,-,N/A,,Clear,250,2013-11-20 18:53:00
9:53 AM,78.8,71.6,78,30.00,9.0,South,3.5,-,N/A,,Clear,190,2013-11-20 19:53:00
10:53 AM,78.8,72.0,79,29.98,10.0,South,8.1,-,N/A,,Clear,170,2013-11-20 20:53:00
11:53 AM,80.6,72.0,75,29.95,10.0,South,8.1,-,N/A,,Clear,170,2013-11-20 21:53:00
12:53 PM,82.4,72.0,71,29.92,10.0,South,10.4,-,N/A,,Partly Cloudy,170,2013-11-20 22:53:00
1:53 PM,80.6,73.0,78,29.90,10.0,South,10.4,-,N/A,,Clear,170,2013-11-20 23:53:00
2:53 PM,78.8,72.0,79,29.90,10.0,SSW,6.9,-,N/A,,Partly Cloudy,210,2013-11-21 00:53:00
3:53 PM,77.0,71.1,82,29.89,8.0,SSE,9.2,-,0.00,,Mostly Cloudy,150,2013-11-21 01:53:00
4:53 PM,73.0,71.1,93,29.91,8.0,West,6.9,-,0.04,Rain,Light Rain,260,2013-11-21 02:53:00
5:53 PM,72.0,70.0,93,29.93,10.0,South,12.7,-,0.05,Rain,Light Rain,180,2013-11-21 03:53:00
6:53 PM,71.1,70.0,96,29.94,10.0,Calm,Calm,-,0.00,Rain,Light Rain,0,2013-11-21 04:53:00
7:53 PM,71.1,71.1,100,29.94,10.0,WSW,4.6,-,0.00,,Clear,250,2013-11-21 05:53:00
8:36 PM,69.8,69.8,100,29.98,10.0,SW,6.9,-,N/A,,Partly Cloudy,230,2013-11-21 06:36:00
8:53 PM,70.0,70.0,100,29.99,10.0,West,5.8,-,N/A,,Scattered Clouds,280,2013-11-21 06:53:00
9:06 PM,69.8,69.8,100,29.99,10.0,SW,6.9,-,N/A,,Partly Cloudy,230,2013-11-21 07:06:00
9:53 PM,70.0,69.1,97,30.00,10.0,West,4.6,-,N/A,,Partly Cloudy,260,2013-11-21 07:53:00
10:16 PM,69.8,68.0,94,30.01,10.0,West,4.6,-,N/A,,Partly Cloudy,280,2013-11-21 08:16:00
10:53 PM,69.1,68.0,96,30.00,10.0,West,3.5,-,N/A,,Partly Cloudy,270,2013-11-21 08:53:00
11:53 PM,68.0,66.9,96,29.98,10.0,West,5.8,-,N/A,,Clear,270,2013-11-21 09:53:00